| time (UTC) | temp F | wind direction | speed MPH | gust MPH | rain 1hr in | rain 24hr in | rain mn in | humidity % | barometer mb |
| 20260504190508 | 70 | 219 | 11.0 | 32.0 | 0.00 | 0.00 | 0.00 | 35 | 1006.6 |
| 20260504190015 | 70 | 198 | 21.0 | 32.0 | 0.00 | 0.00 | 0.00 | 35 | 1006.6 |
| 20260504185507 | 69 | 207 | 18.0 | 29.0 | 0.00 | 0.00 | 0.00 | 36 | 1006.6 |
| 20260504185002 | 69 | 229 | 15.0 | 29.0 | 0.00 | 0.00 | 0.00 | 34 | 1006.8 |
| 20260504184503 | 69 | 243 | 12.0 | 29.0 | 0.00 | 0.00 | 0.00 | 35 | 1006.9 |
| 20260504184003 | 70 | 232 | 15.0 | 26.0 | 0.00 | 0.00 | 0.00 | 34 | 1006.8 |
| 20260504183501 | 70 | 255 | 6.0 | 25.0 | 0.00 | 0.00 | 0.00 | 36 | 1006.9 |
| 20260504183007 | 70 | 188 | 10.0 | 23.0 | 0.00 | 0.00 | 0.00 | 35 | 1006.8 |
| 20260504182503 | 71 | 196 | 10.0 | 35.0 | 0.00 | 0.00 | 0.00 | 34 | 1006.8 |
| 20260504182013 | 71 | 237 | 23.0 | 35.0 | 0.00 | 0.00 | 0.00 | 35 | 1006.8 |
| 20260504181508 | 70 | 189 | 4.0 | 29.0 | 0.00 | 0.00 | 0.00 | 39 | 1006.8 |
| 20260504181004 | 70 | 250 | 21.0 | 29.0 | 0.00 | 0.00 | 0.00 | 33 | 1007.0 |
| 20260504180504 | 70 | 280 | 6.0 | 21.0 | 0.00 | 0.00 | 0.00 | 35 | 1006.9 |
| 20260504180028 | 70 | 242 | 10.0 | 29.0 | 0.00 | 0.00 | 0.00 | 36 | 1007.0 |
| 20260504175507 | 70 | 280 | 6.0 | 31.0 | 0.00 | 0.00 | 0.00 | 43 | 1007.1 |
| 20260504175005 | 69 | 243 | 19.0 | 31.0 | 0.00 | 0.00 | 0.00 | 35 | 1007.2 |
| 20260504174516 | 68 | 261 | 8.0 | 26.0 | 0.00 | 0.00 | 0.00 | 38 | 1007.2 |
| 20260504174007 | 68 | 265 | 10.0 | 26.0 | 0.00 | 0.00 | 0.00 | 39 | 1007.2 |
| 20260504173505 | 68 | 215 | 13.0 | 24.0 | 0.00 | 0.00 | 0.00 | 36 | 1007.2 |
| 20260504173003 | 69 | 272 | 8.0 | 21.0 | 0.00 | 0.00 | 0.00 | 37 | 1007.1 |
| 20260504172507 | 70 | 250 | 6.0 | 20.0 | 0.00 | 0.00 | 0.00 | 43 | 1007.2 |
| 20260504172001 | 68 | 87 | 5.0 | 20.0 | 0.00 | 0.00 | 0.00 | 34 | 1007.3 |
| 20260504171507 | 68 | 270 | 9.0 | 17.0 | 0.00 | 0.00 | 0.00 | 38 | 1007.4 |
| 20260504171003 | 67 | 51 | 5.0 | 22.0 | 0.00 | 0.00 | 0.00 | 39 | 1007.5 |
| 20260504170503 | 66 | 266 | 7.0 | 22.0 | 0.00 | 0.00 | 0.00 | 40 | 1007.6 |
| 20260504151010 | 66 | 223 | 18.0 | 32.0 | 0.00 | 0.00 | 0.00 | 39 | 1008.3 |
| 20260504150511 | 66 | 261 | 19.0 | 31.0 | 0.00 | 0.00 | 0.00 | 37 | 1008.3 |
| 20260504141009 | 63 | 265 | 14.0 | 30.0 | 0.00 | 0.00 | 0.00 | 41 | 1008.6 |
| 20260504140507 | 63 | 196 | 13.0 | 27.0 | 0.00 | 0.00 | 0.00 | 41 | 1008.6 |
| 20260504130511 | 56 | 191 | 10.0 | 23.0 | 0.00 | 0.00 | 0.00 | 51 | 1009.3 |
| 20260504110504 | 43 | 221 | 4.0 | 8.0 | 0.00 | 0.00 | 0.00 | 76 | 1010.3 |
| 20260504100504 | 40 | 227 | 5.0 | 7.0 | 0.00 | 0.00 | 0.00 | 85 | 1010.0 |
| 20260504082006 | 41 | 205 | 4.0 | 6.0 | 0.00 | 0.00 | 0.00 | 86 | 1010.3 |
| 20260504081527 | 41 | 178 | 1.0 | 3.0 | 0.00 | 0.00 | 0.00 | 85 | 1010.2 |
| 20260504081002 | 41 | 238 | 1.0 | 4.0 | 0.00 | 0.00 | 0.00 | 85 | 1010.2 |
| 20260504080507 | 41 | 243 | 2.0 | 4.0 | 0.00 | 0.00 | 0.00 | 84 | 1010.2 |
| 20260504050506 | 39 | 205 | 3.0 | 6.0 | 0.00 | 0.00 | 0.00 | 77 | 1010.7 |
| 20260504050020 | 39 | 231 | 4.0 | 6.0 | 0.00 | 0.00 | 0.00 | 78 | 1010.7 |
| 20260504045506 | 39 | 219 | 4.0 | 6.0 | 0.00 | 0.00 | 0.00 | 77 | 1010.7 |
| 20260504045010 | 39 | 224 | 3.0 | 6.0 | 0.00 | 0.00 | 0.00 | 78 | 1010.7 |
| 20260504044522 | 39 | 225 | 3.0 | 5.0 | 0.00 | 0.00 | 0.00 | 78 | 1010.7 |
| 20260504044006 | 39 | 255 | 3.0 | 5.0 | 0.00 | 0.00 | 0.00 | 78 | 1010.7 |
| 20260504043507 | 38 | 247 | 2.0 | 4.0 | 0.00 | 0.00 | 0.00 | 79 | 1010.7 |
| 20260504043025 | 38 | 295 | 2.0 | 4.0 | 0.00 | 0.00 | 0.00 | 80 | 1010.7 |
| 20260504042510 | 38 | 215 | 2.0 | 4.0 | 0.00 | 0.00 | 0.00 | 80 | 1010.7 |
| 20260504042011 | 38 | 225 | 2.0 | 4.0 | 0.00 | 0.00 | 0.00 | 80 | 1010.7 |
| 20260504041513 | 38 | 205 | 2.0 | 3.0 | 0.00 | 0.00 | 0.00 | 80 | 1010.8 |
| 20260504041005 | 37 | 319 | 1.0 | 3.0 | 0.00 | 0.00 | 0.00 | 80 | 1010.7 |
| 20260504040506 | 37 | 212 | 2.0 | 4.0 | 0.00 | 0.00 | 0.00 | 80 | 1010.6 |
| 20260504040016 | 37 | 170 | 2.0 | 5.0 | 0.00 | 0.00 | 0.00 | 81 | 1010.6 |
| 20260504035507 | 37 | 212 | 3.0 | 5.0 | 0.00 | 0.00 | 0.00 | 81 | 1010.4 |
| 20260504035007 | 36 | 150 | 1.0 | 3.0 | 0.00 | 0.00 | 0.00 | 82 | 1010.4 |
| 20260504034523 | 36 | 178 | 0.0 | 3.0 | 0.00 | 0.00 | 0.00 | 82 | 1010.4 |
| 20260504034010 | 36 | 232 | 1.0 | 3.0 | 0.00 | 0.00 | 0.00 | 82 | 1010.4 |
| 20260504033507 | 36 | 309 | 2.0 | 3.0 | 0.00 | 0.00 | 0.00 | 82 | 1010.4 |
| 20260504033002 | 36 | 67 | 0.0 | 2.0 | 0.00 | 0.00 | 0.00 | 82 | 1010.3 |
| 20260504032503 | 36 | 238 | 1.0 | 2.0 | 0.00 | 0.00 | 0.00 | 82 | 1010.4 |
| 20260504032002 | 36 | 238 | 0.0 | 2.0 | 0.00 | 0.00 | 0.00 | 82 | 1010.4 |
| 20260504031506 | 36 | 238 | 1.0 | 2.0 | 0.00 | 0.00 | 0.00 | 82 | 1010.3 |
| 20260504031001 | 36 | 265 | 0.0 | 2.0 | 0.00 | 0.00 | 0.00 | 81 | 1010.3 |
| 20260504030502 | 36 | 291 | 1.0 | 2.0 | 0.00 | 0.00 | 0.00 | 80 | 1010.3 |
| 20260504030003 | 36 | 247 | 0.0 | 3.0 | 0.00 | 0.00 | 0.00 | 81 | 1010.4 |
| 20260504025502 | 36 | 255 | 1.0 | 3.0 | 0.00 | 0.00 | 0.00 | 80 | 1010.4 |
| 20260504025004 | 36 | 212 | 1.0 | 3.0 | 0.00 | 0.00 | 0.00 | 79 | 1010.4 |
| 20260504024502 | 36 | 232 | 1.0 | 3.0 | 0.00 | 0.00 | 0.00 | 79 | 1010.4 |
| 20260504024001 | 36 | 265 | 1.0 | 3.0 | 0.00 | 0.00 | 0.00 | 78 | 1010.5 |
| 20260504023502 | 36 | 273 | 2.0 | 3.0 | 0.00 | 0.00 | 0.00 | 78 | 1010.4 |
| 20260504023004 | 36 | 247 | 1.0 | 3.0 | 0.00 | 0.00 | 0.00 | 78 | 1010.4 |
| 20260504022505 | 37 | 250 | 1.0 | 3.0 | 0.00 | 0.00 | 0.00 | 78 | 1010.4 |
| 20260504022004 | 37 | 178 | 0.0 | 3.0 | 0.00 | 0.00 | 0.00 | 77 | 1010.3 |
| 20260504021509 | 37 | 221 | 1.0 | 4.0 | 0.00 | 0.00 | 0.00 | 77 | 1010.3 |
| 20260504021002 | 37 | 282 | 2.0 | 4.0 | 0.00 | 0.00 | 0.00 | 77 | 1010.3 |
| 20260504020502 | 37 | 242 | 2.0 | 3.0 | 0.00 | 0.00 | 0.00 | 78 | 1010.2 |
| 20260504020003 | 37 | 265 | 1.0 | 6.0 | 0.00 | 0.00 | 0.00 | 76 | 1010.1 |
| 20260504015502 | 38 | 249 | 2.0 | 6.0 | 0.00 | 0.00 | 0.00 | 75 | 1010.1 |
| 20260504015001 | 38 | 229 | 3.0 | 5.0 | 0.00 | 0.00 | 0.00 | 75 | 1010.0 |
| 20260504014503 | 38 | 255 | 1.0 | 4.0 | 0.00 | 0.00 | 0.00 | 75 | 1010.1 |
| 20260504014002 | 38 | 286 | 2.0 | 4.0 | 0.00 | 0.00 | 0.00 | 74 | 1010.0 |
| 20260504013503 | 39 | 216 | 3.0 | 6.0 | 0.00 | 0.00 | 0.00 | 73 | 1010.0 |
| 20260504013005 | 39 | 344 | 1.0 | 6.0 | 0.00 | 0.00 | 0.00 | 72 | 1009.9 |
| 20260504012503 | 39 | 255 | 1.0 | 3.0 | 0.00 | 0.00 | 0.00 | 72 | 1009.8 |
| 20260504012003 | 39 | 221 | 1.0 | 3.0 | 0.00 | 0.00 | 0.00 | 71 | 1009.7 |
| 20260504011504 | 40 | 153 | 1.0 | 5.0 | 0.00 | 0.00 | 0.00 | 71 | 1009.6 |
| 20260504011002 | 40 | 238 | 2.0 | 5.0 | 0.00 | 0.00 | 0.00 | 71 | 1009.5 |
| 20260504010502 | 40 | 236 | 3.0 | 4.0 | 0.00 | 0.00 | 0.00 | 70 | 1009.5 |
| 20260504010004 | 41 | 265 | 1.0 | 3.0 | 0.00 | 0.00 | 0.00 | 69 | 1009.3 |
| 20260504005502 | 41 | 242 | 1.0 | 3.0 | 0.00 | 0.00 | 0.00 | 69 | 1009.3 |
| 20260504005002 | 41 | 265 | 1.0 | 6.0 | 0.00 | 0.00 | 0.00 | 67 | 1009.2 |
| 20260504004511 | 42 | 250 | 3.0 | 6.0 | 0.00 | 0.00 | 0.00 | 68 | 1009.1 |
| 20260504004003 | 42 | 249 | 3.0 | 5.0 | 0.00 | 0.00 | 0.00 | 69 | 1009.0 |
| 20260504003501 | 42 | 229 | 2.0 | 4.0 | 0.00 | 0.00 | 0.00 | 68 | 1008.9 |
| 20260504003003 | 42 | 219 | 2.0 | 3.0 | 0.00 | 0.00 | 0.00 | 69 | 1008.8 |
| 20260504002503 | 43 | 238 | 1.0 | 4.0 | 0.00 | 0.00 | 0.00 | 69 | 1008.8 |
| 20260504002003 | 43 | 265 | 2.0 | 4.0 | 0.00 | 0.00 | 0.00 | 65 | 1008.7 |
| 20260504001510 | 43 | 250 | 0.0 | 3.0 | 0.00 | 0.00 | 0.00 | 66 | 1008.7 |
| 20260504001003 | 44 | 338 | 1.0 | 3.0 | 0.00 | 0.00 | 0.00 | 68 | 1008.6 |
| 20260504000502 | 45 | 247 | 1.0 | 4.0 | 0.00 | 0.00 | 0.00 | 65 | 1008.5 |
| 20260504000004 | 46 | 254 | 1.0 | 4.0 | 0.00 | 0.00 | 0.00 | 57 | 1008.6 |
| 20260503235502 | 46 | 249 | 2.0 | 4.0 | 0.00 | 0.00 | 0.00 | 56 | 1008.5 |
| 20260503235003 | 47 | 249 | 2.0 | 4.0 | 0.00 | 0.00 | 0.00 | 55 | 1008.4 |
| 20260503234504 | 48 | 241 | 2.0 | 3.0 | 0.00 | 0.00 | 0.00 | 51 | 1008.3 |
| 20260503234003 | 48 | 238 | 1.0 | 3.0 | 0.00 | 0.00 | 0.00 | 50 | 1008.3 |
| 20260503233509 | 48 | 229 | 1.0 | 2.0 | 0.00 | 0.00 | 0.00 | 46 | 1008.3 |
| 20260503233004 | 49 | 51 | 1.0 | 3.0 | 0.00 | 0.00 | 0.00 | 47 | 1008.3 |
| 20260503232502 | 49 | 309 | 0.0 | 5.0 | 0.00 | 0.00 | 0.00 | 46 | 1008.2 |
| 20260503232003 | 49 | 279 | 1.0 | 5.0 | 0.00 | 0.00 | 0.00 | 46 | 1008.2 |
| 20260503231504 | 50 | 329 | 2.0 | 5.0 | 0.00 | 0.00 | 0.00 | 44 | 1008.2 |
| 20260503231004 | 51 | 9 | 2.0 | 5.0 | 0.00 | 0.00 | 0.00 | 42 | 1008.2 |
| 20260503230503 | 51 | 341 | 2.0 | 10.0 | 0.00 | 0.00 | 0.00 | 41 | 1008.2 |
| 20260503230004 | 51 | 22 | 4.0 | 10.0 | 0.00 | 0.00 | 0.00 | 39 | 1008.2 |
| 20260503225503 | 51 | 57 | 1.0 | 10.0 | 0.00 | 0.00 | 0.00 | 41 | 1008.2 |
| 20260503225003 | 52 | 13 | 4.0 | 12.0 | 0.00 | 0.00 | 0.00 | 40 | 1008.2 |
| 20260503224505 | 52 | 36 | 6.0 | 12.0 | 0.00 | 0.00 | 0.00 | 38 | 1008.2 |
| 20260503224003 | 52 | 31 | 7.0 | 14.0 | 0.00 | 0.00 | 0.00 | 39 | 1008.2 |
| 20260503223505 | 52 | 15 | 5.0 | 14.0 | 0.00 | 0.00 | 0.00 | 40 | 1008.2 |
| 20260503223008 | 53 | 67 | 2.0 | 12.0 | 0.00 | 0.00 | 0.00 | 41 | 1008.2 |
| 20260503222505 | 53 | 28 | 5.0 | 14.0 | 0.00 | 0.00 | 0.00 | 37 | 1008.2 |
| 20260503222003 | 53 | 291 | 7.0 | 14.0 | 0.00 | 0.00 | 0.00 | 37 | 1008.2 |
| 20260503221503 | 53 | 331 | 2.0 | 13.0 | 0.00 | 0.00 | 0.00 | 42 | 1008.2 |
| 20260503221002 | 53 | 346 | 2.0 | 13.0 | 0.00 | 0.00 | 0.00 | 38 | 1008.2 |
| 20260503220505 | 53 | 28 | 6.0 | 10.0 | 0.00 | 0.00 | 0.00 | 39 | 1008.1 |
| 20260503220012 | 53 | 59 | 2.0 | 9.0 | 0.00 | 0.00 | 0.00 | 42 | 1008.2 |
| 20260503215504 | 52 | 13 | 5.0 | 12.0 | 0.00 | 0.00 | 0.00 | 40 | 1008.2 |
| 20260503215003 | 52 | 340 | 1.0 | 12.0 | 0.00 | 0.00 | 0.00 | 41 | 1008.1 |
| 20260503214512 | 52 | 238 | 3.0 | 11.0 | 0.00 | 0.00 | 0.00 | 42 | 1008.1 |
| 20260503214003 | 53 | 309 | 3.0 | 12.0 | 0.00 | 0.00 | 0.00 | 41 | 1008.1 |
| 20260503213505 | 53 | 49 | 6.0 | 15.0 | 0.00 | 0.00 | 0.00 | 39 | 1008.1 |
| 20260503213004 | 52 | 23 | 7.0 | 18.0 | 0.00 | 0.00 | 0.00 | 39 | 1008.1 |
| 20260503212504 | 52 | 47 | 5.0 | 18.0 | 0.00 | 0.00 | 0.00 | 40 | 1008.1 |
| 20260503212006 | 52 | 347 | 3.0 | 20.0 | 0.00 | 0.00 | 0.00 | 40 | 1008.1 |
| 20260503211508 | 53 | 336 | 7.0 | 23.0 | 0.00 | 0.00 | 0.00 | 38 | 1008.1 |
| 20260503211003 | 53 | 332 | 10.0 | 23.0 | 0.00 | 0.00 | 0.00 | 38 | 1008.1 |
| 20260503210504 | 52 | 11 | 10.0 | 17.0 | 0.00 | 0.00 | 0.00 | 38 | 1008.1 |
| 20260503210014 | 52 | 33 | 9.0 | 17.0 | 0.00 | 0.00 | 0.00 | 40 | 1008.0 |
| 20260503205504 | 53 | 313 | 7.0 | 16.0 | 0.00 | 0.00 | 0.00 | 39 | 1008.0 |
| 20260503205005 | 52 | 9 | 7.0 | 16.0 | 0.00 | 0.00 | 0.00 | 41 | 1008.0 |
| 20260503204518 | 52 | 316 | 2.0 | 15.0 | 0.00 | 0.00 | 0.00 | 43 | 1008.1 |
| 20260503204003 | 52 | 305 | 5.0 | 22.0 | 0.00 | 0.00 | 0.00 | 40 | 1008.0 |
| 20260503203502 | 53 | 317 | 6.0 | 22.0 | 0.00 | 0.00 | 0.00 | 39 | 1008.1 |
| 20260503203012 | 53 | 44 | 14.0 | 21.0 | 0.00 | 0.00 | 0.00 | 41 | 1008.0 |
| 20260503202504 | 52 | 18 | 4.0 | 20.0 | 0.00 | 0.00 | 0.00 | 42 | 1008.0 |
| 20260503202006 | 52 | 338 | 8.0 | 24.0 | 0.00 | 0.00 | 0.00 | 40 | 1008.1 |
| 20260503201508 | 52 | 20 | 11.0 | 24.0 | 0.00 | 0.00 | 0.00 | 42 | 1008.0 |
| 20260503201003 | 52 | 15 | 7.0 | 16.0 | 0.00 | 0.00 | 0.00 | 40 | 1008.1 |
| 20260503200502 | 52 | 344 | 8.0 | 18.0 | 0.00 | 0.00 | 0.00 | 41 | 1008.2 |
| 20260503200008 | 52 | 328 | 5.0 | 18.0 | 0.00 | 0.00 | 0.00 | 39 | 1008.2 |
| 20260503195503 | 53 | 321 | 7.0 | 15.0 | 0.00 | 0.00 | 0.00 | 42 | 1008.2 |
| 20260503195002 | 52 | 9 | 6.0 | 26.0 | 0.00 | 0.00 | 0.00 | 41 | 1008.3 |
| 20260503194512 | 52 | 313 | 12.0 | 26.0 | 0.00 | 0.00 | 0.00 | 40 | 1008.4 |
| 20260503194006 | 51 | 312 | 9.0 | 24.0 | 0.00 | 0.00 | 0.00 | 42 | 1008.4 |
| 20260503193505 | 51 | 340 | 11.0 | 31.0 | 0.00 | 0.00 | 0.00 | 40 | 1008.4 |
| 20260503193010 | 51 | 26 | 11.0 | 31.0 | 0.00 | 0.00 | 0.00 | 40 | 1008.5 |
| 20260503192503 | 51 | 34 | 16.0 | 28.0 | 0.00 | 0.00 | 0.00 | 41 | 1008.6 |
| 20260503192002 | 52 | 315 | 7.0 | 22.0 | 0.00 | 0.00 | 0.00 | 43 | 1008.5 |
| 20260503191512 | 52 | 291 | 8.0 | 16.0 | 0.00 | 0.00 | 0.00 | 41 | 1008.5 |
| 20260503191002 | 52 | 48 | 6.0 | 23.0 | 0.00 | 0.00 | 0.00 | 41 | 1008.5 |